Time,TemperatureF,DewpointF,PressureIn,WindDirection,WindDirectionDegrees,WindSpeedMPH,WindSpeedGustMPH,Humidity,HourlyPrecipIn,Conditions,Clouds,dailyrainin,SoftwareType,DateUTC
2013-01-21 00:00:00,24.7,10.0,30.35,NNE,28,4.0,-999.0,53,0.00,,,0.00,WeatherSnoop3.0,2013-01-21 06:00:00,
2013-01-21 00:05:00,24.5,10.3,30.35,NNE,30,4.0,-999.0,54,0.00,,,0.00,WeatherSnoop3.0,2013-01-21 06:05:00,
2013-01-21 00:10:00,24.4,10.2,30.35,North,357,5.0,-999.0,54,0.00,,,0.00,WeatherSnoop3.0,2013-01-21 06:10:00,
2013-01-21 00:15:00,24.3,10.5,30.35,North,5,6.0,-999.0,55,0.00,,,0.00,WeatherSnoop3.0,2013-01-21 06:15:00,
2013-01-21 00:20:00,24.1,10.7,30.35,NE,41,5.0,-999.0,56,0.00,,,0.00,WeatherSnoop3.0,2013-01-21 06:20:00,
2013-01-21 00:25:00,23.9,10.9,30.35,NE,34,6.0,-999.0,57,0.00,,,0.00,WeatherSnoop3.0,2013-01-21 06:25:00,
2013-01-21 00:30:00,23.7,11.1,30.35,NNE,20,5.0,-999.0,58,0.00,,,0.00,WeatherSnoop3.0,2013-01-21 06:30:00,
2013-01-21 00:35:00,23.5,10.9,30.35,NNE,19,4.0,-999.0,58,0.00,,,0.00,WeatherSnoop3.0,2013-01-21 06:35:00,
2013-01-21 00:40:00,23.4,10.8,30.35,North,5,4.0,-999.0,58,0.00,,,0.00,WeatherSnoop3.0,2013-01-21 06:40:00,
2013-01-21 00:45:00,23.1,11.3,30.35,NE,37,4.0,-999.0,60,0.00,,,0.00,WeatherSnoop3.0,2013-01-21 06:45:00,
2013-01-21 00:50:00,22.7,11.3,30.35,North,8,3.0,-999.0,61,0.00,,,0.00,WeatherSnoop3.0,2013-01-21 06:50:00,
2013-01-21 00:55:00,22.5,11.1,30.35,North,6,3.0,-999.0,61,0.00,,,0.00,WeatherSnoop3.0,2013-01-21 06:55:00,
2013-01-21 01:00:00,22.3,11.3,30.36,NE,37,2.0,-999.0,62,0.00,,,0.00,WeatherSnoop3.0,2013-01-21 07:00:00,
2013-01-21 01:05:00,22.0,11.0,30.36,NE,39,3.0,-999.0,62,0.00,,,0.00,WeatherSnoop3.0,2013-01-21 07:05:00,
2013-01-21 01:10:00,21.9,11.3,30.36,North,355,7.0,-999.0,63,0.00,,,0.00,WeatherSnoop3.0,2013-01-21 07:10:00,
2013-01-21 01:15:00,21.7,11.1,30.36,North,11,2.0,-999.0,63,0.00,,,0.00,WeatherSnoop3.0,2013-01-21 07:15:00,
2013-01-21 01:20:00,21.5,11.2,30.36,NNW,343,4.0,-999.0,64,0.00,,,0.00,WeatherSnoop3.0,2013-01-21 07:20:00,
2013-01-21 01:25:00,21.3,11.0,30.36,NE,46,6.0,-999.0,64,0.00,,,0.00,WeatherSnoop3.0,2013-01-21 07:25:00,
2013-01-21 01:30:00,21.2,11.3,30.35,NNW,338,6.0,-999.0,65,0.00,,,0.00,WeatherSnoop3.0,2013-01-21 07:30:00,
2013-01-21 01:40:00,21.0,11.1,30.35,NNE,17,5.0,-999.0,65,0.00,,,0.00,WeatherSnoop3.0,2013-01-21 07:40:00,
2013-01-21 01:45:00,20.9,11.0,30.35,NNE,18,8.0,-999.0,65,0.00,,,0.00,WeatherSnoop3.0,2013-01-21 07:45:00,
2013-01-21 01:50:00,20.8,11.3,30.35,NE,37,7.0,-999.0,66,0.00,,,0.00,WeatherSnoop3.0,2013-01-21 07:50:00,
2013-01-21 02:00:00,20.6,11.1,30.35,NNE,15,7.0,-999.0,66,0.00,,,0.00,WeatherSnoop3.0,2013-01-21 08:00:00,
2013-01-21 02:05:00,20.4,11.2,30.35,NNE,25,3.0,-999.0,67,0.00,,,0.00,WeatherSnoop3.0,2013-01-21 08:05:00,
2013-01-21 02:10:00,20.3,11.5,30.36,NNE,32,2.0,-999.0,68,0.00,,,0.00,WeatherSnoop3.0,2013-01-21 08:10:00,
2013-01-21 02:15:00,20.1,11.6,30.36,NNE,26,4.0,-999.0,69,0.00,,,0.00,WeatherSnoop3.0,2013-01-21 08:15:00,
2013-01-21 02:20:00,20.0,11.5,30.35,NNE,26,3.0,-999.0,69,0.00,,,0.00,WeatherSnoop3.0,2013-01-21 08:20:00,
2013-01-21 02:25:00,20.0,11.5,30.36,NE,39,3.0,-999.0,69,0.00,,,0.00,WeatherSnoop3.0,2013-01-21 08:25:00,
2013-01-21 02:30:00,19.9,11.4,30.36,NE,41,2.0,-999.0,69,0.00,,,0.00,WeatherSnoop3.0,2013-01-21 08:30:00,
2013-01-21 02:35:00,19.8,11.3,30.37,NNE,13,5.0,-999.0,69,0.00,,,0.00,WeatherSnoop3.0,2013-01-21 08:35:00,
2013-01-21 02:40:00,19.7,11.2,30.37,NNE,29,4.0,-999.0,69,0.00,,,0.00,WeatherSnoop3.0,2013-01-21 08:40:00,
2013-01-21 02:45:00,19.6,11.4,30.37,North,4,2.0,-999.0,70,0.00,,,0.00,WeatherSnoop3.0,2013-01-21 08:45:00,
2013-01-21 02:50:00,19.5,11.3,30.37,North,11,1.0,-999.0,70,0.00,,,0.00,WeatherSnoop3.0,2013-01-21 08:50:00,
2013-01-21 02:55:00,19.3,11.1,30.38,NNE,12,1.0,-999.0,70,0.00,,,0.00,WeatherSnoop3.0,2013-01-21 08:55:00,
2013-01-21 03:00:00,19.1,11.3,30.38,NE,39,2.0,-999.0,71,0.00,,,0.00,WeatherSnoop3.0,2013-01-21 09:00:00,
2013-01-21 03:05:00,19.0,11.2,30.38,NNE,20,1.0,-999.0,71,0.00,,,0.00,WeatherSnoop3.0,2013-01-21 09:05:00,
2013-01-21 03:10:00,18.8,11.0,30.38,NNE,26,1.0,-999.0,71,0.00,,,0.00,WeatherSnoop3.0,2013-01-21 09:10:00,
2013-01-21 03:15:00,18.6,11.1,30.38,NNE,16,0.0,-999.0,72,0.00,,,0.00,WeatherSnoop3.0,2013-01-21 09:15:00,
2013-01-21 03:20:00,18.3,10.8,30.38,NNE,23,0.0,-999.0,72,0.00,,,0.00,WeatherSnoop3.0,2013-01-21 09:20:00,
2013-01-21 03:25:00,18.1,10.6,30.38,North,354,0.0,-999.0,72,0.00,,,0.00,WeatherSnoop3.0,2013-01-21 09:25:00,
2013-01-21 03:30:00,17.9,10.7,30.38,NNE,14,0.0,-999.0,73,0.00,,,0.00,WeatherSnoop3.0,2013-01-21 09:30:00,
2013-01-21 03:35:00,17.6,10.7,30.39,NW,314,0.0,-999.0,74,0.00,,,0.00,WeatherSnoop3.0,2013-01-21 09:35:00,
2013-01-21 03:40:00,17.2,10.7,30.39,WNW,293,0.0,-999.0,75,0.00,,,0.00,WeatherSnoop3.0,2013-01-21 09:40:00,
2013-01-21 03:45:00,17.1,10.6,30.38,NW,308,0.0,-999.0,75,0.00,,,0.00,WeatherSnoop3.0,2013-01-21 09:45:00,
2013-01-21 03:50:00,16.8,10.3,30.39,NNW,332,0.0,-999.0,75,0.00,,,0.00,WeatherSnoop3.0,2013-01-21 09:50:00,
2013-01-21 03:55:00,16.7,10.5,30.38,North,352,0.0,-999.0,76,0.00,,,0.00,WeatherSnoop3.0,2013-01-21 09:55:00,
2013-01-21 04:00:00,16.6,10.4,30.38,NNE,29,1.0,-999.0,76,0.00,,,0.00,WeatherSnoop3.0,2013-01-21 10:00:00,
2013-01-21 04:05:00,16.5,10.3,30.37,NNE,18,2.0,-999.0,76,0.00,,,0.00,WeatherSnoop3.0,2013-01-21 10:05:00,
2013-01-21 04:10:00,16.5,10.3,30.37,NNE,13,3.0,-999.0,76,0.00,,,0.00,WeatherSnoop3.0,2013-01-21 10:10:00,
2013-01-21 04:15:00,16.7,10.8,30.36,NNE,20,5.0,-999.0,77,0.00,,,0.00,WeatherSnoop3.0,2013-01-21 10:15:00,
2013-01-21 04:20:00,17.0,10.8,30.36,North,358,2.0,-999.0,76,0.00,,,0.00,WeatherSnoop3.0,2013-01-21 10:20:00,
2013-01-21 04:25:00,17.1,10.9,30.36,NNE,29,4.0,-999.0,76,0.00,,,0.00,WeatherSnoop3.0,2013-01-21 10:25:00,
2013-01-21 04:30:00,17.0,10.8,30.36,NNW,342,3.0,-999.0,76,0.00,,,0.00,WeatherSnoop3.0,2013-01-21 10:30:00,
2013-01-21 04:35:00,17.0,10.5,30.36,NNE,20,2.0,-999.0,75,0.00,,,0.00,WeatherSnoop3.0,2013-01-21 10:35:00,
2013-01-21 04:40:00,17.0,10.8,30.36,NNW,342,2.0,-999.0,76,0.00,,,0.00,WeatherSnoop3.0,2013-01-21 10:40:00,
2013-01-21 04:45:00,16.8,10.6,30.36,NE,43,4.0,-999.0,76,0.00,,,0.00,WeatherSnoop3.0,2013-01-21 10:45:00,
2013-01-21 04:50:00,16.7,10.5,30.36,North,357,4.0,-999.0,76,0.00,,,0.00,WeatherSnoop3.0,2013-01-21 10:50:00,
2013-01-21 04:55:00,16.7,10.5,30.36,NNE,33,1.0,-999.0,76,0.00,,,0.00,WeatherSnoop3.0,2013-01-21 10:55:00,
2013-01-21 05:00:00,16.6,10.4,30.36,NNE,19,0.0,-999.0,76,0.00,,,0.00,WeatherSnoop3.0,2013-01-21 11:00:00,
2013-01-21 05:05:00,16.4,10.5,30.36,NNE,15,0.0,-999.0,77,0.00,,,0.00,WeatherSnoop3.0,2013-01-21 11:05:00,
2013-01-21 05:10:00,16.2,10.3,30.36,North,8,1.0,-999.0,77,0.00,,,0.00,WeatherSnoop3.0,2013-01-21 11:10:00,
2013-01-21 05:15:00,16.1,10.2,30.36,NNE,33,0.0,-999.0,77,0.00,,,0.00,WeatherSnoop3.0,2013-01-21 11:15:00,
2013-01-21 05:20:00,16.0,10.1,30.36,North,351,0.0,-999.0,77,0.00,,,0.00,WeatherSnoop3.0,2013-01-21 11:20:00,
2013-01-21 05:25:00,16.0,10.1,30.35,North,8,0.0,-999.0,77,0.00,,,0.00,WeatherSnoop3.0,2013-01-21 11:25:00,
2013-01-21 05:30:00,15.9,10.3,30.36,North,6,0.0,-999.0,78,0.00,,,0.00,WeatherSnoop3.0,2013-01-21 11:30:00,
2013-01-21 05:35:00,15.9,10.3,30.36,NNE,29,0.0,-999.0,78,0.00,,,0.00,WeatherSnoop3.0,2013-01-21 11:35:00,
2013-01-21 05:40:00,15.9,10.3,30.36,NNE,20,1.0,-999.0,78,0.00,,,0.00,WeatherSnoop3.0,2013-01-21 11:40:00,
2013-01-21 05:45:00,15.8,10.5,30.36,NNW,338,0.0,-999.0,79,0.00,,,0.00,WeatherSnoop3.0,2013-01-21 11:45:00,
2013-01-21 05:50:00,15.5,10.2,30.36,NNW,338,0.0,-999.0,79,0.00,,,0.00,WeatherSnoop3.0,2013-01-21 11:50:00,
2013-01-21 05:55:00,15.3,10.0,30.36,NNW,347,0.0,-999.0,79,0.00,,,0.00,WeatherSnoop3.0,2013-01-21 11:55:00,
2013-01-21 06:00:00,15.1,10.1,30.36,NNW,347,0.0,-999.0,80,0.00,,,0.00,WeatherSnoop3.0,2013-01-21 12:00:00,
2013-01-21 06:05:00,14.7,9.7,30.36,NNW,347,0.0,-999.0,80,0.00,,,0.00,WeatherSnoop3.0,2013-01-21 12:05:00,
2013-01-21 06:10:00,14.6,9.9,30.36,NNW,347,0.0,-999.0,81,0.00,,,0.00,WeatherSnoop3.0,2013-01-21 12:10:00,
2013-01-21 06:15:00,14.3,9.6,30.36,NNW,347,0.0,-999.0,81,0.00,,,0.00,WeatherSnoop3.0,2013-01-21 12:15:00,
2013-01-21 06:20:00,14.1,9.6,30.36,NNW,347,0.0,-999.0,82,0.00,,,0.00,WeatherSnoop3.0,2013-01-21 12:20:00,
2013-01-21 06:25:00,13.9,9.4,30.36,NNW,347,0.0,-999.0,82,0.00,,,0.00,WeatherSnoop3.0,2013-01-21 12:25:00,
2013-01-21 06:30:00,13.8,9.6,30.37,NNW,347,0.0,-999.0,83,0.00,,,0.00,WeatherSnoop3.0,2013-01-21 12:30:00,
2013-01-21 06:35:00,13.4,9.0,30.37,NNW,347,0.0,-999.0,82,0.00,,,0.00,WeatherSnoop3.0,2013-01-21 12:35:00,
2013-01-21 06:40:00,13.1,9.2,30.37,NNW,347,0.0,-999.0,84,0.00,,,0.00,WeatherSnoop3.0,2013-01-21 12:40:00,
2013-01-21 06:45:00,12.9,9.0,30.37,NNW,347,0.0,-999.0,84,0.00,,,0.00,WeatherSnoop3.0,2013-01-21 12:45:00,
2013-01-21 06:50:00,12.8,8.9,30.36,NNW,347,0.0,-999.0,84,0.00,,,0.00,WeatherSnoop3.0,2013-01-21 12:50:00,
2013-01-21 06:55:00,12.7,9.1,30.37,NNW,347,0.0,-999.0,85,0.00,,,0.00,WeatherSnoop3.0,2013-01-21 12:55:00,
2013-01-21 07:00:00,13.2,9.6,30.37,NNW,327,0.0,-999.0,85,0.00,,,0.00,WeatherSnoop3.0,2013-01-21 13:00:00,
2013-01-21 07:05:00,13.3,9.4,30.37,NNW,327,0.0,-999.0,84,0.00,,,0.00,WeatherSnoop3.0,2013-01-21 13:05:00,
2013-01-21 07:10:00,13.7,9.8,30.37,West,263,0.0,-999.0,84,0.00,,,0.00,WeatherSnoop3.0,2013-01-21 13:10:00,
2013-01-21 07:15:00,14.0,9.8,30.38,West,263,0.0,-999.0,83,0.00,,,0.00,WeatherSnoop3.0,2013-01-21 13:15:00,
2013-01-21 07:20:00,13.9,9.7,30.38,West,263,0.0,-999.0,83,0.00,,,0.00,WeatherSnoop3.0,2013-01-21 13:20:00,
2013-01-21 07:25:00,13.4,9.2,30.38,West,263,0.0,-999.0,83,0.00,,,0.00,WeatherSnoop3.0,2013-01-21 13:25:00,
2013-01-21 07:30:00,13.1,9.2,30.38,West,263,0.0,-999.0,84,0.00,,,0.00,WeatherSnoop3.0,2013-01-21 13:30:00,
2013-01-21 07:35:00,12.9,9.3,30.38,West,263,0.0,-999.0,85,0.00,,,0.00,WeatherSnoop3.0,2013-01-21 13:35:00,
2013-01-21 07:40:00,13.0,9.4,30.38,West,263,0.0,-999.0,85,0.00,,,0.00,WeatherSnoop3.0,2013-01-21 13:40:00,
2013-01-21 07:45:00,13.3,9.7,30.38,West,263,0.0,-999.0,85,0.00,,,0.00,WeatherSnoop3.0,2013-01-21 13:45:00,
2013-01-21 07:50:00,13.2,9.3,30.38,West,263,0.0,-999.0,84,0.00,,,0.00,WeatherSnoop3.0,2013-01-21 13:50:00,
2013-01-21 07:55:00,13.0,9.1,30.38,West,263,0.0,-999.0,84,0.00,,,0.00,WeatherSnoop3.0,2013-01-21 13:55:00,
2013-01-21 08:00:00,13.0,9.4,30.38,West,263,0.0,-999.0,85,0.00,,,0.00,WeatherSnoop3.0,2013-01-21 14:00:00,
2013-01-21 08:05:00,13.2,9.6,30.38,West,263,0.0,-999.0,85,0.00,,,0.00,WeatherSnoop3.0,2013-01-21 14:05:00,
2013-01-21 08:10:00,13.2,9.6,30.38,West,263,0.0,-999.0,85,0.00,,,0.00,WeatherSnoop3.0,2013-01-21 14:10:00,
2013-01-21 08:15:00,13.4,9.7,30.38,West,263,0.0,-999.0,85,0.00,,,0.00,WeatherSnoop3.0,2013-01-21 14:15:00,
2013-01-21 08:20:00,13.9,10.8,30.38,West,269,0.0,-999.0,87,0.00,,,0.00,WeatherSnoop3.0,2013-01-21 14:20:00,
2013-01-21 08:25:00,15.3,11.6,30.39,West,278,0.0,-999.0,85,0.00,,,0.00,WeatherSnoop3.0,2013-01-21 14:25:00,
2013-01-21 08:30:00,16.3,12.3,30.38,West,278,0.0,-999.0,84,0.00,,,0.00,WeatherSnoop3.0,2013-01-21 14:30:00,
2013-01-21 08:35:00,17.0,12.2,30.38,West,278,0.0,-999.0,81,0.00,,,0.00,WeatherSnoop3.0,2013-01-21 14:35:00,
2013-01-21 08:40:00,17.9,13.1,30.39,West,277,0.0,-999.0,81,0.00,,,0.00,WeatherSnoop3.0,2013-01-21 14:40:00,
2013-01-21 08:45:00,18.7,13.3,30.39,West,276,0.0,-999.0,79,0.00,,,0.00,WeatherSnoop3.0,2013-01-21 14:45:00,
2013-01-21 08:50:00,19.4,13.7,30.39,West,274,1.0,-999.0,78,0.00,,,0.00,WeatherSnoop3.0,2013-01-21 14:50:00,
2013-01-21 08:55:00,20.1,14.1,30.39,West,276,2.0,-999.0,77,0.00,,,0.00,WeatherSnoop3.0,2013-01-21 14:55:00,
2013-01-21 09:00:00,20.5,13.9,30.39,West,278,3.0,-999.0,75,0.00,,,0.00,WeatherSnoop3.0,2013-01-21 15:00:00,
2013-01-21 09:05:00,21.1,14.1,30.39,West,260,3.0,-999.0,74,0.00,,,0.00,WeatherSnoop3.0,2013-01-21 15:05:00,
2013-01-21 09:10:00,21.5,13.9,30.39,WSW,249,2.0,-999.0,72,0.00,,,0.00,WeatherSnoop3.0,2013-01-21 15:10:00,
2013-01-21 09:15:00,21.8,13.9,30.39,West,262,1.0,-999.0,71,0.00,,,0.00,WeatherSnoop3.0,2013-01-21 15:15:00,
2013-01-21 09:20:00,22.2,13.3,30.39,West,271,1.0,-999.0,68,0.00,,,0.00,WeatherSnoop3.0,2013-01-21 15:20:00,
2013-01-21 09:25:00,22.7,13.8,30.40,West,267,2.0,-999.0,68,0.00,,,0.00,WeatherSnoop3.0,2013-01-21 15:25:00,
2013-01-21 09:30:00,23.1,13.5,30.40,West,276,0.0,-999.0,66,0.00,,,0.00,WeatherSnoop3.0,2013-01-21 15:30:00,
2013-01-21 09:35:00,23.6,13.9,30.40,SW,217,1.0,-999.0,66,0.00,,,0.00,WeatherSnoop3.0,2013-01-21 15:35:00,
2013-01-21 09:40:00,24.1,14.1,30.40,West,269,1.0,-999.0,65,0.00,,,0.00,WeatherSnoop3.0,2013-01-21 15:40:00,
2013-01-21 09:45:00,24.7,14.3,30.40,West,264,1.0,-999.0,64,0.00,,,0.00,WeatherSnoop3.0,2013-01-21 15:45:00,
2013-01-21 09:50:00,25.1,13.6,30.40,NW,313,0.0,-999.0,61,0.00,,,0.00,WeatherSnoop3.0,2013-01-21 15:50:00,
2013-01-21 09:55:00,25.5,13.9,30.40,WSW,243,0.0,-999.0,61,0.00,,,0.00,WeatherSnoop3.0,2013-01-21 15:55:00,
2013-01-21 10:00:00,25.9,13.6,30.40,West,260,0.0,-999.0,59,0.00,,,0.00,WeatherSnoop3.0,2013-01-21 16:00:00,
2013-01-21 10:05:00,26.4,13.7,30.40,NNE,20,0.0,-999.0,58,0.00,,,0.00,WeatherSnoop3.0,2013-01-21 16:05:00,
2013-01-21 10:10:00,27.1,13.9,30.40,West,280,1.0,-999.0,57,0.00,,,0.00,WeatherSnoop3.0,2013-01-21 16:10:00,
2013-01-21 10:15:00,27.5,13.9,30.40,WNW,288,0.0,-999.0,56,0.00,,,0.00,WeatherSnoop3.0,2013-01-21 16:15:00,
2013-01-21 10:20:00,27.8,14.2,30.40,North,5,1.0,-999.0,56,0.00,,,0.00,WeatherSnoop3.0,2013-01-21 16:20:00,
2013-01-21 10:25:00,28.3,14.2,30.40,West,273,0.0,-999.0,55,0.00,,,0.00,WeatherSnoop3.0,2013-01-21 16:25:00,
2013-01-21 10:30:00,28.8,14.3,30.40,West,277,0.0,-999.0,54,0.00,,,0.00,WeatherSnoop3.0,2013-01-21 16:30:00,
2013-01-21 10:35:00,28.9,13.5,30.40,East,87,0.0,-999.0,52,0.00,,,0.00,WeatherSnoop3.0,2013-01-21 16:35:00,
2013-01-21 10:40:00,29.2,14.2,30.40,WNW,289,0.0,-999.0,53,0.00,,,0.00,WeatherSnoop3.0,2013-01-21 16:40:00,
2013-01-21 10:45:00,29.5,14.5,30.40,ENE,65,0.0,-999.0,53,0.00,,,0.00,WeatherSnoop3.0,2013-01-21 16:45:00,
2013-01-21 10:50:00,29.8,13.5,30.40,ENE,57,0.0,-999.0,50,0.00,,,0.00,WeatherSnoop3.0,2013-01-21 16:50:00,
2013-01-21 10:55:00,30.2,14.3,30.40,East,89,0.0,-999.0,51,0.00,,,0.00,WeatherSnoop3.0,2013-01-21 16:55:00,
2013-01-21 11:00:00,29.7,13.4,30.40,NNE,22,0.0,-999.0,50,0.00,,,0.00,WeatherSnoop3.0,2013-01-21 17:00:00,
2013-01-21 11:05:00,29.8,13.0,30.40,North,6,2.0,-999.0,49,0.00,,,0.00,WeatherSnoop3.0,2013-01-21 17:05:00,
2013-01-21 11:10:00,29.5,12.7,30.40,ENE,63,1.0,-999.0,49,0.00,,,0.00,WeatherSnoop3.0,2013-01-21 17:10:00,
2013-01-21 11:15:00,29.3,13.0,30.40,East,98,1.0,-999.0,50,0.00,,,0.00,WeatherSnoop3.0,2013-01-21 17:15:00,
2013-01-21 11:20:00,29.8,13.0,30.40,SE,146,2.0,-999.0,49,0.00,,,0.00,WeatherSnoop3.0,2013-01-21 17:20:00,
2013-01-21 11:25:00,30.2,13.4,30.40,East,96,2.0,-999.0,49,0.00,,,0.00,WeatherSnoop3.0,2013-01-21 17:25:00,
2013-01-21 11:30:00,30.7,12.9,30.40,SE,138,2.0,-999.0,47,0.00,,,0.00,WeatherSnoop3.0,2013-01-21 17:30:00,
2013-01-21 11:35:00,30.9,13.1,30.40,SE,146,2.0,-999.0,47,0.00,,,0.00,WeatherSnoop3.0,2013-01-21 17:35:00,
2013-01-21 11:40:00,30.9,13.5,30.40,SE,134,0.0,-999.0,48,0.00,,,0.00,WeatherSnoop3.0,2013-01-21 17:40:00,
2013-01-21 11:45:00,31.5,13.1,30.40,SSW,212,2.0,-999.0,46,0.00,,,0.00,WeatherSnoop3.0,2013-01-21 17:45:00,
2013-01-21 11:50:00,31.7,13.8,30.39,SW,222,1.0,-999.0,47,0.00,,,0.00,WeatherSnoop3.0,2013-01-21 17:50:00,
2013-01-21 11:55:00,31.8,12.9,30.38,West,281,1.0,-999.0,45,0.00,,,0.00,WeatherSnoop3.0,2013-01-21 17:55:00,
2013-01-21 12:00:00,31.9,13.5,30.38,SSE,149,2.0,-999.0,46,0.00,,,0.00,WeatherSnoop3.0,2013-01-21 18:00:00,
2013-01-21 12:05:00,31.8,12.9,30.37,ESE,106,1.0,-999.0,45,0.00,,,0.00,WeatherSnoop3.0,2013-01-21 18:05:00,
2013-01-21 12:10:00,32.0,13.6,30.37,East,85,1.0,-999.0,46,0.00,,,0.00,WeatherSnoop3.0,2013-01-21 18:10:00,
2013-01-21 12:15:00,33.2,14.2,30.37,SSW,211,2.0,-999.0,45,0.00,,,0.00,WeatherSnoop3.0,2013-01-21 18:15:00,
2013-01-21 12:20:00,33.2,13.7,30.37,SE,140,0.0,-999.0,44,0.00,,,0.00,WeatherSnoop3.0,2013-01-21 18:20:00,
2013-01-21 12:25:00,32.9,13.9,30.37,West,274,1.0,-999.0,45,0.00,,,0.00,WeatherSnoop3.0,2013-01-21 18:25:00,
2013-01-21 12:30:00,33.3,13.8,30.36,West,276,0.0,-999.0,44,0.00,,,0.00,WeatherSnoop3.0,2013-01-21 18:30:00,
2013-01-21 12:35:00,33.6,13.5,30.36,North,357,1.0,-999.0,43,0.00,,,0.00,WeatherSnoop3.0,2013-01-21 18:35:00,
2013-01-21 12:40:00,33.9,14.3,30.35,East,98,2.0,-999.0,44,0.00,,,0.00,WeatherSnoop3.0,2013-01-21 18:40:00,
2013-01-21 12:45:00,34.1,14.0,30.35,SE,144,1.0,-999.0,43,0.00,,,0.00,WeatherSnoop3.0,2013-01-21 18:45:00,
2013-01-21 12:50:00,34.3,14.2,30.34,ESE,113,0.0,-999.0,43,0.00,,,0.00,WeatherSnoop3.0,2013-01-21 18:50:00,
2013-01-21 12:55:00,34.2,13.5,30.34,West,266,0.0,-999.0,42,0.00,,,0.00,WeatherSnoop3.0,2013-01-21 18:55:00,
2013-01-21 13:00:00,34.2,14.1,30.34,South,187,1.0,-999.0,43,0.00,,,0.00,WeatherSnoop3.0,2013-01-21 19:00:00,
2013-01-21 13:05:00,34.3,14.2,30.33,NNE,16,0.0,-999.0,43,0.00,,,0.00,WeatherSnoop3.0,2013-01-21 19:05:00,
2013-01-21 13:10:00,34.5,14.3,30.33,WSW,252,4.0,-999.0,43,0.00,,,0.00,WeatherSnoop3.0,2013-01-21 19:10:00,
2013-01-21 13:15:00,34.5,14.3,30.33,SW,219,2.0,-999.0,43,0.00,,,0.00,WeatherSnoop3.0,2013-01-21 19:15:00,
2013-01-21 13:20:00,34.0,13.9,30.33,East,81,1.0,-999.0,43,0.00,,,0.00,WeatherSnoop3.0,2013-01-21 19:20:00,
2013-01-21 13:25:00,34.4,14.8,30.33,SSE,158,1.0,-999.0,44,0.00,,,0.00,WeatherSnoop3.0,2013-01-21 19:25:00,
2013-01-21 13:30:00,34.8,14.6,30.33,SE,138,0.0,-999.0,43,0.00,,,0.00,WeatherSnoop3.0,2013-01-21 19:30:00,
2013-01-21 13:35:00,35.0,14.3,30.33,South,187,0.0,-999.0,42,0.00,,,0.00,WeatherSnoop3.0,2013-01-21 19:35:00,
2013-01-21 13:40:00,35.8,15.0,30.33,West,264,1.0,-999.0,42,0.00,,,0.00,WeatherSnoop3.0,2013-01-21 19:40:00,
2013-01-21 13:45:00,35.8,15.0,30.33,WSW,243,4.0,-999.0,42,0.00,,,0.00,WeatherSnoop3.0,2013-01-21 19:45:00,
2013-01-21 13:50:00,35.5,14.2,30.33,SE,142,2.0,-999.0,41,0.00,,,0.00,WeatherSnoop3.0,2013-01-21 19:50:00,
2013-01-21 13:55:00,35.4,14.6,30.32,South,186,1.0,-999.0,42,0.00,,,0.00,WeatherSnoop3.0,2013-01-21 19:55:00,
2013-01-21 14:00:00,35.9,14.5,30.32,SE,128,0.0,-999.0,41,0.00,,,0.00,WeatherSnoop3.0,2013-01-21 20:00:00,
2013-01-21 14:05:00,36.3,14.9,30.32,WSW,245,0.0,-999.0,41,0.00,,,0.00,WeatherSnoop3.0,2013-01-21 20:05:00,
2013-01-21 14:10:00,36.3,15.4,30.32,ENE,70,1.0,-999.0,42,0.00,,,0.00,WeatherSnoop3.0,2013-01-21 20:10:00,
2013-01-21 14:15:00,35.9,14.5,30.32,NNE,29,1.0,-999.0,41,0.00,,,0.00,WeatherSnoop3.0,2013-01-21 20:15:00,
2013-01-21 14:20:00,36.0,14.6,30.32,ESE,118,2.0,-999.0,41,0.00,,,0.00,WeatherSnoop3.0,2013-01-21 20:20:00,
2013-01-21 14:25:00,36.2,15.3,30.31,SW,226,2.0,-999.0,42,0.00,,,0.00,WeatherSnoop3.0,2013-01-21 20:25:00,
2013-01-21 14:30:00,36.5,15.6,30.31,SW,225,2.0,-999.0,42,0.00,,,0.00,WeatherSnoop3.0,2013-01-21 20:30:00,
2013-01-21 14:35:00,36.8,15.3,30.31,WSW,257,1.0,-999.0,41,0.00,,,0.00,WeatherSnoop3.0,2013-01-21 20:35:00,
2013-01-21 14:40:00,36.5,15.1,30.31,NW,318,0.0,-999.0,41,0.00,,,0.00,WeatherSnoop3.0,2013-01-21 20:40:00,
2013-01-21 14:45:00,36.7,15.2,30.31,South,169,3.0,-999.0,41,0.00,,,0.00,WeatherSnoop3.0,2013-01-21 20:45:00,
2013-01-21 14:50:00,36.6,14.6,30.30,WSW,253,3.0,-999.0,40,0.00,,,0.00,WeatherSnoop3.0,2013-01-21 20:50:00,
2013-01-21 14:55:00,36.2,14.2,30.30,NE,47,2.0,-999.0,40,0.00,,,0.00,WeatherSnoop3.0,2013-01-21 20:55:00,
2013-01-21 15:00:00,35.8,14.4,30.30,SSW,203,1.0,-999.0,41,0.00,,,0.00,WeatherSnoop3.0,2013-01-21 21:00:00,
2013-01-21 15:05:00,36.1,14.7,30.29,SSW,208,0.0,-999.0,41,0.00,,,0.00,WeatherSnoop3.0,2013-01-21 21:05:00,
2013-01-21 15:10:00,36.4,15.0,30.29,WSW,245,3.0,-999.0,41,0.00,,,0.00,WeatherSnoop3.0,2013-01-21 21:10:00,
2013-01-21 15:15:00,36.3,14.3,30.29,SSE,155,3.0,-999.0,40,0.00,,,0.00,WeatherSnoop3.0,2013-01-21 21:15:00,
2013-01-21 15:20:00,36.4,14.4,30.28,SW,224,0.0,-999.0,40,0.00,,,0.00,WeatherSnoop3.0,2013-01-21 21:20:00,
2013-01-21 15:25:00,36.8,14.8,30.28,SSW,210,0.0,-999.0,40,0.00,,,0.00,WeatherSnoop3.0,2013-01-21 21:25:00,
2013-01-21 15:30:00,37.2,14.6,30.28,ESE,115,1.0,-999.0,39,0.00,,,0.00,WeatherSnoop3.0,2013-01-21 21:30:00,
2013-01-21 15:35:00,37.3,14.1,30.28,SSW,203,4.0,-999.0,38,0.00,,,0.00,WeatherSnoop3.0,2013-01-21 21:35:00,
2013-01-21 15:40:00,37.0,14.4,30.27,SE,142,1.0,-999.0,39,0.00,,,0.00,WeatherSnoop3.0,2013-01-21 21:40:00,
2013-01-21 15:45:00,37.0,14.4,30.27,SE,129,3.0,-999.0,39,0.00,,,0.00,WeatherSnoop3.0,2013-01-21 21:45:00,
2013-01-21 15:50:00,37.2,14.6,30.27,SW,229,4.0,-999.0,39,0.00,,,0.00,WeatherSnoop3.0,2013-01-21 21:50:00,
2013-01-21 15:55:00,37.1,14.5,30.26,SE,146,0.0,-999.0,39,0.00,,,0.00,WeatherSnoop3.0,2013-01-21 21:55:00,
2013-01-21 16:00:00,37.2,14.6,30.27,SE,139,2.0,-999.0,39,0.00,,,0.00,WeatherSnoop3.0,2013-01-21 22:00:00,
2013-01-21 16:05:00,37.0,14.4,30.26,SSW,207,2.0,-999.0,39,0.00,,,0.00,WeatherSnoop3.0,2013-01-21 22:05:00,
2013-01-21 16:10:00,37.3,14.6,30.26,SW,229,6.0,-999.0,39,0.00,,,0.00,WeatherSnoop3.0,2013-01-21 22:10:00,
2013-01-21 16:15:00,37.2,14.6,30.25,SSW,210,2.0,-999.0,39,0.00,,,0.00,WeatherSnoop3.0,2013-01-21 22:15:00,
2013-01-21 16:20:00,36.9,14.3,30.26,SE,133,1.0,-999.0,39,0.00,,,0.00,WeatherSnoop3.0,2013-01-21 22:20:00,
2013-01-21 16:25:00,37.1,14.5,30.26,South,170,1.0,-999.0,39,0.00,,,0.00,WeatherSnoop3.0,2013-01-21 22:25:00,
2013-01-21 16:30:00,37.2,14.6,30.26,SW,229,2.0,-999.0,39,0.00,,,0.00,WeatherSnoop3.0,2013-01-21 22:30:00,
2013-01-21 16:35:00,37.1,13.9,30.25,SE,142,2.0,-999.0,38,0.00,,,0.00,WeatherSnoop3.0,2013-01-21 22:35:00,
2013-01-21 16:40:00,36.9,14.3,30.25,South,176,2.0,-999.0,39,0.00,,,0.00,WeatherSnoop3.0,2013-01-21 22:40:00,
2013-01-21 16:45:00,36.9,13.7,30.25,SSE,160,4.0,-999.0,38,0.00,,,0.00,WeatherSnoop3.0,2013-01-21 22:45:00,
2013-01-21 16:50:00,36.6,13.4,30.24,SE,139,2.0,-999.0,38,0.00,,,0.00,WeatherSnoop3.0,2013-01-21 22:50:00,
2013-01-21 16:55:00,36.4,13.8,30.24,SSW,195,0.0,-999.0,39,0.00,,,0.00,WeatherSnoop3.0,2013-01-21 22:55:00,
2013-01-21 17:00:00,36.5,13.9,30.24,SE,134,0.0,-999.0,39,0.00,,,0.00,WeatherSnoop3.0,2013-01-21 23:00:00,
2013-01-21 17:05:00,36.1,14.1,30.25,South,172,1.0,-999.0,40,0.00,,,0.00,WeatherSnoop3.0,2013-01-21 23:05:00,
2013-01-21 17:10:00,35.7,14.3,30.25,East,86,1.0,-999.0,41,0.00,,,0.00,WeatherSnoop3.0,2013-01-21 23:10:00,
2013-01-21 17:15:00,35.2,14.4,30.25,SE,139,2.0,-999.0,42,0.00,,,0.00,WeatherSnoop3.0,2013-01-21 23:15:00,
2013-01-21 17:20:00,34.8,14.1,30.24,SE,132,1.0,-999.0,42,0.00,,,0.00,WeatherSnoop3.0,2013-01-21 23:20:00,
2013-01-21 17:25:00,34.5,14.3,30.25,East,101,1.0,-999.0,43,0.00,,,0.00,WeatherSnoop3.0,2013-01-21 23:25:00,
2013-01-21 17:30:00,34.1,14.5,30.26,ESE,102,0.0,-999.0,44,0.00,,,0.00,WeatherSnoop3.0,2013-01-21 23:30:00,
2013-01-21 17:35:00,33.7,14.6,30.26,East,101,0.0,-999.0,45,0.00,,,0.00,WeatherSnoop3.0,2013-01-21 23:35:00,
2013-01-21 17:40:00,33.2,14.7,30.27,East,93,0.0,-999.0,46,0.00,,,0.00,WeatherSnoop3.0,2013-01-21 23:40:00,
2013-01-21 17:45:00,32.5,14.0,30.27,East,93,0.0,-999.0,46,0.00,,,0.00,WeatherSnoop3.0,2013-01-21 23:45:00,
2013-01-21 17:50:00,31.6,13.7,30.26,East,93,0.0,-999.0,47,0.00,,,0.00,WeatherSnoop3.0,2013-01-21 23:50:00,
2013-01-21 17:55:00,30.8,14.8,30.26,East,93,0.0,-999.0,51,0.00,,,0.00,WeatherSnoop3.0,2013-01-21 23:55:00,
2013-01-21 18:00:00,30.3,14.4,30.25,East,93,0.0,-999.0,51,0.00,,,0.00,WeatherSnoop3.0,2013-01-22 00:00:00,
2013-01-21 18:05:00,29.9,14.0,30.26,East,93,0.0,-999.0,51,0.00,,,0.00,WeatherSnoop3.0,2013-01-22 00:05:00,
2013-01-21 18:10:00,29.4,14.0,30.26,East,93,0.0,-999.0,52,0.00,,,0.00,WeatherSnoop3.0,2013-01-22 00:10:00,
2013-01-21 18:15:00,28.6,13.7,30.26,East,93,0.0,-999.0,53,0.00,,,0.00,WeatherSnoop3.0,2013-01-22 00:15:00,
2013-01-21 18:20:00,28.2,13.7,30.26,East,94,0.0,-999.0,54,0.00,,,0.00,WeatherSnoop3.0,2013-01-22 00:20:00,
2013-01-21 18:25:00,28.2,13.7,30.27,East,93,0.0,-999.0,54,0.00,,,0.00,WeatherSnoop3.0,2013-01-22 00:25:00,
2013-01-21 18:30:00,28.0,14.4,30.27,East,94,0.0,-999.0,56,0.00,,,0.00,WeatherSnoop3.0,2013-01-22 00:30:00,
2013-01-21 18:35:00,27.5,13.9,30.27,East,93,0.0,-999.0,56,0.00,,,0.00,WeatherSnoop3.0,2013-01-22 00:35:00,
2013-01-21 18:40:00,27.0,14.2,30.27,East,93,0.0,-999.0,58,0.00,,,0.00,WeatherSnoop3.0,2013-01-22 00:40:00,
2013-01-21 18:45:00,26.9,14.1,30.27,East,93,0.0,-999.0,58,0.00,,,0.00,WeatherSnoop3.0,2013-01-22 00:45:00,
2013-01-21 18:50:00,26.8,14.0,30.27,East,94,0.0,-999.0,58,0.00,,,0.00,WeatherSnoop3.0,2013-01-22 00:50:00,
2013-01-21 18:55:00,27.2,13.6,30.26,SE,127,1.0,-999.0,56,0.00,,,0.00,WeatherSnoop3.0,2013-01-22 00:55:00,
2013-01-21 19:00:00,27.7,13.7,30.26,ESE,113,0.0,-999.0,55,0.00,,,0.00,WeatherSnoop3.0,2013-01-22 01:00:00,
2013-01-21 19:05:00,28.0,13.9,30.26,ESE,121,0.0,-999.0,55,0.00,,,0.00,WeatherSnoop3.0,2013-01-22 01:05:00,
2013-01-21 19:10:00,28.1,14.0,30.27,SE,128,0.0,-999.0,55,0.00,,,0.00,WeatherSnoop3.0,2013-01-22 01:10:00,
2013-01-21 19:15:00,28.2,14.1,30.27,SE,128,0.0,-999.0,55,0.00,,,0.00,WeatherSnoop3.0,2013-01-22 01:15:00,
2013-01-21 19:20:00,28.2,14.1,30.27,SE,128,0.0,-999.0,55,0.00,,,0.00,WeatherSnoop3.0,2013-01-22 01:20:00,
2013-01-21 19:25:00,27.9,13.9,30.27,SE,129,0.0,-999.0,55,0.00,,,0.00,WeatherSnoop3.0,2013-01-22 01:25:00,
2013-01-21 19:30:00,27.7,14.1,30.27,SE,128,0.0,-999.0,56,0.00,,,0.00,WeatherSnoop3.0,2013-01-22 01:30:00,
2013-01-21 19:35:00,27.5,13.9,30.27,SE,129,0.0,-999.0,56,0.00,,,0.00,WeatherSnoop3.0,2013-01-22 01:35:00,
2013-01-21 19:40:00,27.3,13.7,30.27,SE,133,0.0,-999.0,56,0.00,,,0.00,WeatherSnoop3.0,2013-01-22 01:40:00,
2013-01-21 19:45:00,27.3,13.7,30.27,SE,132,0.0,-999.0,56,0.00,,,0.00,WeatherSnoop3.0,2013-01-22 01:45:00,
2013-01-21 19:50:00,26.9,14.5,30.27,SE,133,0.0,-999.0,59,0.00,,,0.00,WeatherSnoop3.0,2013-01-22 01:50:00,
2013-01-21 19:55:00,26.4,14.4,30.27,SE,132,0.0,-999.0,60,0.00,,,0.00,WeatherSnoop3.0,2013-01-22 01:55:00,
2013-01-21 20:00:00,26.0,14.4,30.27,SE,133,0.0,-999.0,61,0.00,,,0.00,WeatherSnoop3.0,2013-01-22 02:00:00,
2013-01-21 20:05:00,25.9,14.0,30.27,SE,132,0.0,-999.0,60,0.00,,,0.00,WeatherSnoop3.0,2013-01-22 02:05:00,
2013-01-21 20:10:00,26.2,14.2,30.27,SE,133,0.0,-999.0,60,0.00,,,0.00,WeatherSnoop3.0,2013-01-22 02:10:00,
2013-01-21 20:15:00,26.4,14.0,30.26,SE,132,1.0,-999.0,59,0.00,,,0.00,WeatherSnoop3.0,2013-01-22 02:15:00,
2013-01-21 20:20:00,26.6,14.2,30.26,East,94,0.0,-999.0,59,0.00,,,0.00,WeatherSnoop3.0,2013-01-22 02:20:00,
2013-01-21 20:25:00,26.7,14.3,30.26,ESE,116,0.0,-999.0,59,0.00,,,0.00,WeatherSnoop3.0,2013-01-22 02:25:00,
2013-01-21 20:30:00,26.9,14.1,30.26,SE,126,0.0,-999.0,58,0.00,,,0.00,WeatherSnoop3.0,2013-01-22 02:30:00,
2013-01-21 20:35:00,26.9,14.5,30.26,ESE,108,1.0,-999.0,59,0.00,,,0.00,WeatherSnoop3.0,2013-01-22 02:35:00,
2013-01-21 20:40:00,27.0,14.2,30.26,SE,134,0.0,-999.0,58,0.00,,,0.00,WeatherSnoop3.0,2013-01-22 02:40:00,
2013-01-21 20:45:00,27.0,14.2,30.27,ESE,113,0.0,-999.0,58,0.00,,,0.00,WeatherSnoop3.0,2013-01-22 02:45:00,
2013-01-21 20:50:00,26.9,14.5,30.27,ESE,113,1.0,-999.0,59,0.00,,,0.00,WeatherSnoop3.0,2013-01-22 02:50:00,
2013-01-21 20:55:00,26.9,14.1,30.26,SE,129,0.0,-999.0,58,0.00,,,0.00,WeatherSnoop3.0,2013-01-22 02:55:00,
2013-01-21 21:00:00,26.8,14.4,30.26,ESE,121,0.0,-999.0,59,0.00,,,0.00,WeatherSnoop3.0,2013-01-22 03:00:00,
2013-01-21 21:05:00,26.7,14.3,30.26,SE,131,0.0,-999.0,59,0.00,,,0.00,WeatherSnoop3.0,2013-01-22 03:05:00,
2013-01-21 21:10:00,26.6,14.2,30.26,SE,129,0.0,-999.0,59,0.00,,,0.00,WeatherSnoop3.0,2013-01-22 03:10:00,
2013-01-21 21:15:00,26.4,14.0,30.27,SE,129,0.0,-999.0,59,0.00,,,0.00,WeatherSnoop3.0,2013-01-22 03:15:00,
2013-01-21 21:20:00,26.2,14.2,30.27,SE,128,0.0,-999.0,60,0.00,,,0.00,WeatherSnoop3.0,2013-01-22 03:20:00,
2013-01-21 21:25:00,26.1,14.1,30.27,SE,129,0.0,-999.0,60,0.00,,,0.00,WeatherSnoop3.0,2013-01-22 03:25:00,
2013-01-21 21:30:00,26.0,14.4,30.28,SE,129,0.0,-999.0,61,0.00,,,0.00,WeatherSnoop3.0,2013-01-22 03:30:00,
2013-01-21 21:35:00,25.6,14.0,30.28,SE,129,0.0,-999.0,61,0.00,,,0.00,WeatherSnoop3.0,2013-01-22 03:35:00,
2013-01-21 21:40:00,25.5,13.9,30.28,SE,124,1.0,-999.0,61,0.00,,,0.00,WeatherSnoop3.0,2013-01-22 03:40:00,
2013-01-21 21:45:00,25.5,13.9,30.28,SE,130,0.0,-999.0,61,0.00,,,0.00,WeatherSnoop3.0,2013-01-22 03:45:00,
2013-01-21 21:50:00,25.5,13.9,30.28,ESE,118,0.0,-999.0,61,0.00,,,0.00,WeatherSnoop3.0,2013-01-22 03:50:00,
2013-01-21 21:55:00,25.6,14.0,30.27,SE,127,0.0,-999.0,61,0.00,,,0.00,WeatherSnoop3.0,2013-01-22 03:55:00,
2013-01-21 22:00:00,25.7,14.1,30.27,SE,141,1.0,-999.0,61,0.00,,,0.00,WeatherSnoop3.0,2013-01-22 04:00:00,
2013-01-21 22:05:00,25.6,14.0,30.27,SE,141,1.0,-999.0,61,0.00,,,0.00,WeatherSnoop3.0,2013-01-22 04:05:00,
2013-01-21 22:10:00,25.6,14.0,30.27,SE,139,0.0,-999.0,61,0.00,,,0.00,WeatherSnoop3.0,2013-01-22 04:10:00,
2013-01-21 22:15:00,25.4,14.2,30.27,SE,133,0.0,-999.0,62,0.00,,,0.00,WeatherSnoop3.0,2013-01-22 04:15:00,
2013-01-21 22:20:00,25.5,14.3,30.27,SE,136,0.0,-999.0,62,0.00,,,0.00,WeatherSnoop3.0,2013-01-22 04:20:00,
2013-01-21 22:25:00,25.5,14.3,30.27,East,92,2.0,-999.0,62,0.00,,,0.00,WeatherSnoop3.0,2013-01-22 04:25:00,
2013-01-21 22:30:00,25.5,14.3,30.28,ESE,121,0.0,-999.0,62,0.00,,,0.00,WeatherSnoop3.0,2013-01-22 04:30:00,
2013-01-21 22:35:00,25.6,14.4,30.28,ESE,121,0.0,-999.0,62,0.00,,,0.00,WeatherSnoop3.0,2013-01-22 04:35:00,
2013-01-21 22:40:00,25.5,14.3,30.28,SE,127,0.0,-999.0,62,0.00,,,0.00,WeatherSnoop3.0,2013-01-22 04:40:00,
2013-01-21 22:45:00,25.5,14.3,30.28,SE,134,1.0,-999.0,62,0.00,,,0.00,WeatherSnoop3.0,2013-01-22 04:45:00,
2013-01-21 22:50:00,25.4,14.2,30.28,ENE,78,2.0,-999.0,62,0.00,,,0.00,WeatherSnoop3.0,2013-01-22 04:50:00,
2013-01-21 22:55:00,25.4,14.2,30.29,SE,143,0.0,-999.0,62,0.00,,,0.00,WeatherSnoop3.0,2013-01-22 04:55:00,
2013-01-21 23:00:00,25.3,14.1,30.29,East,94,2.0,-999.0,62,0.00,,,0.00,WeatherSnoop3.0,2013-01-22 05:00:00,
2013-01-21 23:10:00,25.1,13.9,30.28,ESE,120,1.0,-999.0,62,0.00,,,0.00,WeatherSnoop3.0,2013-01-22 05:10:00,
2013-01-21 23:15:00,25.0,14.2,30.28,SE,139,2.0,-999.0,63,0.00,,,0.00,WeatherSnoop3.0,2013-01-22 05:15:00,
2013-01-21 23:20:00,24.9,14.1,30.27,SSE,160,2.0,-999.0,63,0.00,,,0.00,WeatherSnoop3.0,2013-01-22 05:20:00,
2013-01-21 23:25:00,24.8,14.0,30.28,SE,135,1.0,-999.0,63,0.00,,,0.00,WeatherSnoop3.0,2013-01-22 05:25:00,
2013-01-21 23:30:00,24.7,14.3,30.27,SE,127,1.0,-999.0,64,0.00,,,0.00,WeatherSnoop3.0,2013-01-22 05:30:00,
2013-01-21 23:35:00,24.6,14.5,30.27,East,94,2.0,-999.0,65,0.00,,,0.00,WeatherSnoop3.0,2013-01-22 05:35:00,
2013-01-21 23:40:00,24.4,14.4,30.27,ESE,116,1.0,-999.0,65,0.00,,,0.00,WeatherSnoop3.0,2013-01-22 05:40:00,
2013-01-21 23:45:00,24.1,14.4,30.27,East,101,3.0,-999.0,66,0.00,,,0.00,WeatherSnoop3.0,2013-01-22 05:45:00,
2013-01-21 23:50:00,23.8,14.5,30.27,SE,136,5.0,-999.0,67,0.00,,,0.00,WeatherSnoop3.0,2013-01-22 05:50:00,
2013-01-21 23:55:00,23.6,14.6,30.28,ESE,102,3.0,-999.0,68,0.00,,,0.00,WeatherSnoop3.0,2013-01-22 05:55:00,